Satellite: HRBE Catalog number: 37855 Epoch time: 13038.20092599 Element set: 413 Inclination: 101.7149 deg RA of node: 192.2276 deg Eccentricity: 0.0240177 Arg of perigee: 038.8480 deg Mean anomaly: 322.9711 deg Mean motion: 14.82641826 rev/day Decay rate: 2.210e-05 rev/day^2 Epoch rev: 6918 Checksum: 295
Satellite: RS-39 Catalog number: 38051 Epoch time: 13038.80415978 Element set: 150 Inclination: 051.6369 deg RA of node: 113.2461 deg Eccentricity: 0.0012470 Arg of perigee: 156.6072 deg Mean anomaly: 307.5229 deg Mean motion: 15.29076397 rev/day Decay rate: 1.0145e-04 rev/day^2 Epoch rev: 5796 Checksum: 304
Satellite: E-STAR Catalog number: 38079 Epoch time: 13038.65213194 Element set: 874 Inclination: 069.4836 deg RA of node: 130.1302 deg Eccentricity: 0.0667672 Arg of perigee: 306.4372 deg Mean anomaly: 047.7057 deg Mean motion: 14.33650099 rev/day Decay rate: 2.9744e-04 rev/day^2 Epoch rev: 5110 Checksum: 308
Satellite: GOLIAT Catalog number: 38085 Epoch time: 13038.35678094 Element set: 811 Inclination: 069.4885 deg RA of node: 132.1405 deg Eccentricity: 0.0674916 Arg of perigee: 307.4922 deg Mean anomaly: 046.6632 deg Mean motion: 14.32073562 rev/day Decay rate: 2.4390e-04 rev/day^2 Epoch rev: 5102 Checksum: 300
Satellite: HORYU-2 Catalog number: 38340 Epoch time: 13037.88943959 Element set: 359 Inclination: 098.2018 deg RA of node: 344.5550 deg Eccentricity: 0.0011943 Arg of perigee: 309.6610 deg Mean anomaly: 050.3556 deg Mean motion: 14.70598151 rev/day Decay rate: 9.60e-06 rev/day^2 Epoch rev: 3896 Checksum: 319
Satellite: RS-40 Catalog number: 38736 Epoch time: 13038.08150391 Element set: 181 Inclination: 082.4728 deg RA of node: 236.2549 deg Eccentricity: 0.0018020 Arg of perigee: 253.1356 deg Mean anomaly: 106.7750 deg Mean motion: 12.42650453 rev/day Decay rate: 1.0e-07 rev/day^2 Epoch rev: 2408 Checksum: 265
Satellite: PROITERES Catalog number: 38756 Epoch time: 13038.80995429 Element set: 486 Inclination: 098.2667 deg RA of node: 113.4250 deg Eccentricity: 0.0012999 Arg of perigee: 154.1621 deg Mean anomaly: 206.0225 deg Mean motion: 14.74068720 rev/day Decay rate: 3.39e-06 rev/day^2 Epoch rev: 2233 Checksum: 302
Satellite: AENEAS Catalog number: 38760 Epoch time: 13010.30862094 Element set: 0038 Inclination: 064.6736 deg RA of node: 037.6222 deg Eccentricity: 0.0216021 Arg of perigee: 256.7016 deg Mean anomaly: 100.9927 deg Mean motion: 14.80037176 rev/day Decay rate: 4.933e-05 rev/day^2 Epoch rev: 00558 Checksum: 275
Satellite: CSSWE-D Catalog number: 38761 Epoch time: 13010.31251606 Element set: 0035 Inclination: 064.6743 deg RA of node: 037.6425 deg Eccentricity: 0.0217594 Arg of perigee: 256.6983 deg Mean anomaly: 100.9785 deg Mean motion: 14.79845475 rev/day Decay rate: 4.126e-05 rev/day^2 Epoch rev: 00560 Checksum: 303
Satellite: CXBN-E Catalog number: 38762 Epoch time: 13010.30523402 Element set: 0036 Inclination: 064.6804 deg RA of node: 037.6257 deg Eccentricity: 0.0218357 Arg of perigee: 256.1531 deg Mean anomaly: 101.5196 deg Mean motion: 14.79997447 rev/day Decay rate: 5.383e-05 rev/day^2 Epoch rev: 00567 Checksum: 296
Satellite: OBJECT F Catalog number: 38763 Epoch time: 13010.30916126 Element set: 0035 Inclination: 064.6735 deg RA of node: 037.6208 deg Eccentricity: 0.0218061 Arg of perigee: 256.7365 deg Mean anomaly: 100.9342 deg Mean motion: 14.79862223 rev/day Decay rate: 3.917e-05 rev/day^2 Epoch rev: 00561 Checksum: 280
Satellite: CINEMA-G Catalog number: 38764 Epoch time: 13010.30690144 Element set: 0034 Inclination: 064.6741 deg RA of node: 037.6060 deg Eccentricity: 0.0217613 Arg of perigee: 256.7942 deg Mean anomaly: 100.8813 deg Mean motion: 14.79914111 rev/day Decay rate: 4.197e-05 rev/day^2 Epoch rev: 00557 Checksum: 278
Satellite: CP5 Catalog number: 38765 Epoch time: 13010.36660122 Element set: 0036 Inclination: 064.6738 deg RA of node: 037.3618 deg Eccentricity: 0.0216618 Arg of perigee: 256.5143 deg Mean anomaly: 101.1776 deg Mean motion: 14.80096794 rev/day Decay rate: 5.184e-05 rev/day^2 Epoch rev: 00558 Checksum: 301
Satellite: RAIKO Catalog number: 38852 Epoch time: 13038.78392809 Element set: 136 Inclination: 051.6464 deg RA of node: 027.1655 deg Eccentricity: 0.0012655 Arg of perigee: 235.6713 deg Mean anomaly: 124.3078 deg Mean motion: 15.60407172 rev/day Decay rate: 3.6165e-04 rev/day^2 Epoch rev: 1957 Checksum: 303
Satellite: FITSAT 1 Catalog number: 38853 Epoch time: 13038.39197911 Element set: 134 Inclination: 051.6463 deg RA of node: 028.3077 deg Eccentricity: 0.0008797 Arg of perigee: 257.9371 deg Mean anomaly: 102.0633 deg Mean motion: 15.62281612 rev/day Decay rate: 4.5968e-04 rev/day^2 Epoch rev: 1957 Checksum: 318
Satellite: TechEdSat Catalog number: 38854 Epoch time: 13038.22724450 Element set: 151 Inclination: 051.6437 deg RA of node: 027.1944 deg Eccentricity: 0.0006760 Arg of perigee: 251.0066 deg Mean anomaly: 109.0197 deg Mean motion: 15.67127980 rev/day Decay rate: 7.8477e-04 rev/day^2 Epoch rev: 1957 Checksum: 303
Satellite: F 1 Catalog number: 38855 Epoch time: 13038.18262511 Element set: 153 Inclination: 051.6438 deg RA of node: 027.6228 deg Eccentricity: 0.0006973 Arg of perigee: 271.2179 deg Mean anomaly: 088.7995 deg Mean motion: 15.66555528 rev/day Decay rate: 7.5103e-04 rev/day^2 Epoch rev: 1945 Checksum: 324
Satellite: WeWish Catalog number: 38856 Epoch time: 13038.18814099 Element set: 172 Inclination: 051.6382 deg RA of node: 023.1301 deg Eccentricity: 0.0002570 Arg of perigee: 234.3259 deg Mean anomaly: 125.7490 deg Mean motion: 15.80405143 rev/day Decay rate: 2.30044e-03 rev/day^2 Epoch rev: 1951 Checksum: 266
/EX